Clinton-Sherman, OK

3:31 PM CDT on April 28, 2017 (GMT -0500)
Clinton-Sherman

Weather History for KCSM - August, 2014

Change the Weather History Date:

Saturday, August 9, 2014

  Actual Average Record
Temperature  
Mean Temperature 84 °F -  
Max Temperature 93 °F 91 °F 104 °F (1998)
Min Temperature 75 °F 68 °F 64 °F (1997)
Cooling Degree Days 19    
Growing Degree Days 34 (Base 50)    
Moisture  
Dew Point 64 °F    
Average Humidity 54    
Maximum Humidity 76    
Minimum Humidity 38    
Precipitation  
Precipitation 0.00 in - - ()
Sea Level Pressure  
Sea Level Pressure 29.92 in    
Wind  
Wind Speed 6 mph (South)    
Max Wind Speed 15 mph    
Max Gust Speed 18 mph    
Visibility 10 miles    
Events Rain    
Averages and records for this station are not official NWS values.
T = Trace of Precipitation, MM = Missing Value Source: NWS Daily Summary

Daily Weather History Graph

Daily Weather History Graph

Search for Another Location

Airport or City:

Trip Planner

Search our weather history database for the weather conditions in past years. The results will help you decide how hot, cold, wet, or windy it might be!

Date:

Astronomy

Aug. 09, 2014 Rise Set
Actual Time 6:51 AM CDT 8:32 PM CDT
Civil Twilight 6:24 AM CDT 8:59 PM CDT
Nautical Twilight 5:51 AM CDT 9:32 PM CDT
Astronomical Twilight 5:16 AM CDT 10:07 PM CDT
Moon 7:36 PM CDT (8/9) 5:34 AM CDT (8/9)
Length of Visible Light 14h 35m
Length of Day
13h 40m
Waxing Gibbous, 98% of the Moon is Illuminated
Aug 9
Waxing Gibbous
Aug 10
Full
Aug 17
Last Quarter
Aug 25
New
Sep 2
First Quarter

Hourly Weather History & Observations

Time (CDT) Temp. Heat Index Dew Point Humidity Pressure Visibility Wind Dir Wind Speed Gust Speed Precip Events Conditions
12:53 AM 78.1 °F - 61.0 °F 56% 29.92 in 10.0 mi Calm Calm - N/A   Clear
1:53 AM 78.1 °F - 61.0 °F 56% 29.90 in 10.0 mi ESE 3.5 mph - N/A   Partly Cloudy
2:53 AM 75.9 °F - 64.9 °F 69% 29.89 in 10.0 mi SE 12.7 mph - N/A   Clear
3:53 AM 75.9 °F - 64.9 °F 69% 29.91 in 10.0 mi South 12.7 mph - N/A   Partly Cloudy
4:53 AM 75.9 °F - 62.1 °F 62% 29.92 in 10.0 mi SW 5.8 mph - N/A   Scattered Clouds
5:53 AM 75.9 °F - 63.0 °F 64% 29.91 in 10.0 mi SSW 5.8 mph - N/A   Clear
6:53 AM 75.0 °F - 64.0 °F 69% 29.92 in 10.0 mi Calm Calm - 0.00 in Rain Light Rain
7:53 AM 75.0 °F - 66.9 °F 76% 29.94 in 10.0 mi Calm Calm - 0.00 in   Scattered Clouds
8:53 AM 77.0 °F - 66.0 °F 69% 29.95 in 10.0 mi West 3.5 mph - N/A   Clear
9:53 AM 79.0 °F - 64.9 °F 62% 29.95 in 10.0 mi Calm Calm - N/A   Clear
10:53 AM 84.0 °F 84.5 °F 62.1 °F 47% 29.96 in 10.0 mi SW 5.8 mph - N/A   Clear
12:53 PM 84.9 °F 86.1 °F 64.0 °F 49% 29.99 in 10.0 mi ESE 10.4 mph - N/A   Clear
1:53 PM 88.0 °F 89.3 °F 64.0 °F 45% 29.98 in 10.0 mi SE 12.7 mph 18.4 mph N/A   Scattered Clouds
2:53 PM 89.1 °F 90.0 °F 63.0 °F 42% 29.96 in 10.0 mi SSE 13.8 mph 18.4 mph N/A   Mostly Cloudy
3:53 PM 91.0 °F 91.9 °F 63.0 °F 39% 29.93 in 10.0 mi South 12.7 mph - N/A   Clear
4:53 PM 93.0 °F 94.6 °F 64.0 °F 38% 29.90 in 10.0 mi South 15.0 mph - N/A   Clear
5:53 PM 93.0 °F 95.0 °F 64.9 °F 39% 29.89 in 10.0 mi South 13.8 mph - N/A   Clear
6:53 PM 91.0 °F 92.6 °F 64.0 °F 41% 29.89 in 10.0 mi SSW 6.9 mph - N/A   Clear
7:53 PM 90.0 °F 90.3 °F 62.1 °F 39% 29.88 in 10.0 mi South 8.1 mph - N/A   Clear
8:53 PM 84.0 °F 84.9 °F 63.0 °F 49% 29.90 in 10.0 mi SSE 10.4 mph - N/A   Clear
11:53 PM 80.1 °F 81.7 °F 64.0 °F 58% 29.93 in 10.0 mi South 10.4 mph - N/A   Clear